Location: Bagnolo San Vito
(45.0833°N, 10.8833°E)
Time: 09:59:48
(UTC+00:00)

Cosmos 2341 Rocket - Pass Details

Date: 03 March 2021
Orbit: 968 x 1004 km, 82.9° (Epoch: 18 April)

Event Time Altitude Azimuth Distance (km) Brightness Sun altitude
Rises 18:28:25 0° 178° (S) 3,699 7.0 -15.2°
Reaches altitude 10° 18:30:56 10° 176° (S) 2,749 6.3 -15.7°
Maximum altitude 18:37:12 70° 95° (E) 1,046 3.9 -16.7°
Drops below altitude 10° 18:43:27 10° 13° (NNE) 2,742 6.3 -17.8°
Sets 18:45:58 0° 11° (N) 3,689 7.0 -18.3°
